DW8306 Weather Reports


time (UTC)temp
F
wind
direction
speed
knots
gust
knots
rain 1hr
in
rain 24hr
in
rain mn
in
humidity
%
barometer
mb
20260506131519 75 179 0.0 0.0 0.00 0.00 0.00 91 1009.6
20260506130014 74 179 0.0 0.0 0.00 0.00 0.00 91 1009.6
20260506124623 74 179 0.0 0.0 0.00 0.00 0.00 91 1009.5
20260506123012 74 179 0.0 0.0 0.00 0.00 0.00 91 1009.4
20260506121512 74 179 0.0 0.0 0.00 0.00 0.00 91 1009.1
20260506120116 73 179 0.0 0.0 0.00 0.00 0.00 91 1009.0
20260506114518 73 179 0.0 0.0 0.00 0.00 0.00 91 1009.0
20260506113011 73 179 0.0 0.0 0.00 0.00 0.00 91 1008.7
20260506111515 73 179 0.0 0.0 0.00 0.00 0.00 91 1008.4
20260506110020 73 179 0.0 0.0 0.00 0.00 0.00 91 1008.3
20260506104531 73 179 0.0 0.0 0.00 0.00 0.00 91 1008.2
20260506103035 73 179 0.0 0.0 0.00 0.00 0.00 91 1008.0
20260506101508 73 179 0.0 0.0 0.00 0.00 0.00 91 1007.8
20260506100018 73 179 0.0 0.0 0.00 0.00 0.00 90 1007.9
20260506094518 73 179 0.0 0.0 0.00 0.00 0.00 90 1007.4
20260506093018 73 211 0.0 0.0 0.00 0.00 0.00 90 1007.3
20260506091516 73 211 0.0 0.0 0.00 0.00 0.00 90 1007.5
20260506090016 73 206 0.0 0.0 0.00 0.00 0.00 90 1007.6
20260506084636 74 187 0.0 0.0 0.00 0.00 0.00 89 1007.3
20260506083107 74 187 0.0 0.0 0.00 0.00 0.00 89 1007.2
20260506081518 74 220 0.0 0.0 0.00 0.00 0.00 88 1007.2
20260506073006 75 156 0.0 0.0 0.00 0.00 0.00 87 1007.0
20260506071606 75 141 0.0 0.0 0.00 0.00 0.00 87 1007.3
20260506061520 75 172 0.0 0.0 0.00 0.00 0.00 88 1007.8
20260506044607 75 160 0.0 0.0 0.00 0.00 0.00 89 1007.1
20260506043011 75 160 0.0 0.0 0.00 0.00 0.00 89 1007.1
20260506041610 75 200 0.0 0.0 0.00 0.00 0.00 88 1006.8
20260506040110 75 206 0.0 0.0 0.00 0.00 0.00 88 1007.1
20260506034515 75 204 0.0 0.0 0.00 0.00 0.00 87 1006.8
20260506033003 76 164 0.0 0.0 0.00 0.00 0.00 87 1007.0
20260506031616 76 164 0.0 0.0 0.00 0.00 0.00 87 1007.1
20260506030012 76 164 0.0 0.0 0.00 0.00 0.00 86 1007.0
20260506024516 76 164 0.0 0.0 0.00 0.00 0.00 85 1006.7
20260506023121 77 164 0.0 0.0 0.00 0.00 0.00 84 1006.4
20260506021622 77 164 0.0 0.0 0.00 0.00 0.00 83 1006.3
20260506020107 78 164 0.0 0.0 0.00 0.00 0.00 82 1006.2
20260506014615 78 164 0.0 0.0 0.00 0.00 0.00 81 1006.1
20260506013019 78 164 0.0 0.9 0.00 0.00 0.00 81 1006.0
20260506011524 79 164 0.0 0.9 0.00 0.00 0.00 80 1005.6
20260506010007 79 164 0.0 0.9 0.00 0.00 0.00 79 1005.1
20260506004513 80 164 0.0 1.7 0.00 0.00 0.00 78 1005.1
20260506003021 81 193 0.0 0.0 0.00 0.00 0.00 77 1005.1
20260506000012 81 179 0.0 1.7 0.00 0.00 0.00 75 1005.1
20260505234508 82 166 0.0 1.7 0.00 0.00 0.00 74 1005.0
20260505233113 82 162 0.0 1.7 0.00 0.00 0.00 74 1005.0
20260505231532 83 199 0.9 3.5 0.00 0.00 0.00 73 1004.8
20260505230023 84 155 0.0 1.7 0.00 0.00 0.00 72 1004.7
20260505224517 84 158 0.0 0.9 0.00 0.00 0.00 73 1004.8
20260505221508 84 180 0.9 3.5 0.00 0.00 0.00 71 1005.1
20260505220009 85 171 0.0 0.9 0.00 0.00 0.00 71 1005.2
20260505214511 84 172 0.0 0.9 0.00 0.00 0.00 73 1005.4
20260505213016 84 131 0.0 1.7 0.00 0.00 0.00 73 1005.3
20260505211607 84 185 0.0 1.7 0.00 0.00 0.00 70 1005.3
20260505210106 85 154 0.0 3.5 0.00 0.00 0.00 70 1005.5
20260505204514 84 160 0.0 4.3 0.00 0.00 0.00 70 1005.2
20260505203014 85 183 0.0 6.1 0.00 0.00 0.00 70 1005.5
20260505201608 84 199 1.7 6.1 0.00 0.00 0.00 69 1005.7
20260505200022 84 152 0.0 3.5 0.00 0.00 0.00 73 1005.9
20260505194516 82 184 0.9 3.5 0.00 0.00 0.00 73 1006.2
20260505193020 81 158 0.0 3.5 0.00 0.00 0.00 73 1006.4
20260505191522 82 155 0.0 3.5 0.00 0.00 0.00 72 1006.5
20260505190109 81 147 1.7 9.6 0.00 0.00 0.00 73 1006.5
20260505184526 81 161 1.7 7.0 0.00 0.00 0.00 74 1006.6
20260505183015 81 183 0.0 3.5 0.00 0.00 0.00 74 1006.4
20260505181505 82 172 0.0 3.5 0.00 0.00 0.00 74 1006.5
20260505180104 79 186 0.0 4.3 0.00 0.00 0.00 76 1006.6
20260505174606 79 160 1.7 4.3 0.00 0.00 0.00 76 1006.7
20260505173019 78 142 0.0 4.3 0.00 0.00 0.00 78 1006.9
20260505171515 77 132 0.0 3.5 0.00 0.00 0.00 79 1007.0
20260505170016 76 161 0.0 1.7 0.00 0.00 0.00 81 1007.1
20260505164511 75 160 0.0 4.3 0.00 0.00 0.00 81 1007.2
20260505163108 75 137 0.0 3.5 0.00 0.00 0.00 82 1007.6
20260505161520 74 133 0.9 2.6 0.00 0.00 0.00 83 1007.5
20260505160117 74 166 0.0 3.5 0.00 0.00 0.00 83 1007.5
20260505153021 73 122 0.0 1.7 0.00 0.00 0.00 85 1007.3
20260505151619 72 164 0.0 1.7 0.00 0.00 0.00 86 1007.6
20260505150106 71 46 0.0 3.5 0.00 0.00 0.00 87 1007.4
20260505140120 70 197 0.0 0.0 0.00 0.00 0.00 88 1007.5